Terminal Aerodrome Forecast
Issued by NWS Austin/San Antonio, TX

Home | Current Version | Previous Version | Text Only | Print | Product List | Glossary On
Versions: 1 2 3 4 5 6 7 8 9 10 11 12 13 14 15 16 17 18 19 20 21 22 23 24
000
FTUS44 KEWX 222330
TAFAUS
TAF
KAUS 222330Z 2300/2406 06009KT P6SM BKN020 OVC026
     FM230200 04004KT P6SM OVC017
     FM231000 VRB03KT 6SM BR OVC007
     FM231400 02006KT P6SM OVC012
     FM231800 36012KT P6SM VCSH BKN035 PROB30 2318/2324 5SM TSRA
      FEW010 BKN035CB
     FM240100 01010KT P6SM SCT050=

USA.gov is the U.S. government's official web portal to all federal, state and local government web resources and services.